DRU223 UUWW-UWKD

Flight info

Callsign DRU223
Flight time N/A
Altitude 37000
Route KOGOM3D KOGOM L94 EKPIR M864 INKEB L94 UNORO T788 KOROM KOROM1R
Aircraft A321/M-SDE3FGHIRWY/LB1

Departure

Time 2026-05-06 09:24
Airport Vnukovo International Airport (UUWW)

Arrival

Time N/A
Airport Kazan International Airport (UWKD)
Time Latitude Longitude Altitude Speed Heading
2026-05-06 09:07 55.60189 37.27730 694 ft 0 kts 78°
2026-05-06 09:19 55.60190 37.27742 694 ft 3 kts 78°
2026-05-06 09:19 55.60123 37.27963 694 ft 28 kts 135°
2026-05-06 09:19 55.60074 37.28244 694 ft 14 kts 81°
2026-05-06 09:19 55.60096 37.28419 694 ft 14 kts 65°
2026-05-06 09:20 55.60108 37.28455 694 ft 2 kts 54°
2026-05-06 09:20 55.60193 37.28613 694 ft 8 kts 50°
2026-05-06 09:20 55.60199 37.28710 694 ft 9 kts 118°
2026-05-06 09:20 55.60141 37.28825 694 ft 16 kts 139°
2026-05-06 09:21 55.60020 37.28904 694 ft 15 kts 167°
2026-05-06 09:21 55.59972 37.28925 694 ft 0 kts 165°
2026-05-06 09:22 55.59942 37.28937 694 ft 0 kts 168°
2026-05-06 09:23 55.59844 37.28975 694 ft 26 kts 177°
2026-05-06 09:23 55.59669 37.28406 694 ft 94 kts 251°
2026-05-06 09:23 55.59335 37.26915 734 ft 158 kts 249°
2026-05-06 09:24 55.58899 37.25088 1396 ft 167 kts 245°
2026-05-06 09:24 55.58326 37.23305 2289 ft 171 kts 239°
2026-05-06 09:24 55.57595 37.21621 3064 ft 178 kts 237°
2026-05-06 09:24 55.56853 37.19758 3732 ft 194 kts 238°
2026-05-06 09:25 55.56038 37.17646 4309 ft 218 kts 238°
2026-05-06 09:25 55.55245 37.15337 5136 ft 226 kts 249°
2026-05-06 09:25 55.54854 37.12677 6015 ft 227 kts 268°
2026-05-06 09:25 55.54811 37.09901 6620 ft 228 kts 270°
2026-05-06 09:26 55.54870 37.07116 6919 ft 227 kts 281°
2026-05-06 09:26 55.55535 37.04599 6957 ft 230 kts 310°
2026-05-06 09:26 55.56864 37.02941 6965 ft 242 kts 338°
2026-05-06 09:26 55.58583 37.02522 7003 ft 252 kts 356°
2026-05-06 09:27 55.60335 37.02551 7558 ft 252 kts 358°
2026-05-06 09:27 55.62067 37.03001 8075 ft 259 kts 19°
2026-05-06 09:27 55.63534 37.04857 8575 ft 267 kts 49°
2026-05-06 09:27 55.64336 37.07986 9088 ft 291 kts 81°
2026-05-06 09:28 55.64404 37.11639 9611 ft 299 kts 90°
2026-05-06 09:28 55.64346 37.15362 10117 ft 302 kts 90°
2026-05-06 09:28 55.64217 37.19088 10621 ft 304 kts 96°
2026-05-06 09:28 55.63798 37.22779 11126 ft 306 kts 104°
2026-05-06 09:29 55.63148 37.26487 11644 ft 308 kts 107°
2026-05-06 09:29 55.62453 37.30161 12156 ft 310 kts 107°
2026-05-06 09:29 55.61757 37.33852 12667 ft 313 kts 107°
2026-05-06 09:29 55.61071 37.37541 13200 ft 315 kts 107°
2026-05-06 09:30 55.60387 37.41261 13831 ft 319 kts 106°
2026-05-06 09:30 55.59693 37.45036 14465 ft 322 kts 106°
2026-05-06 09:30 55.58988 37.48871 15103 ft 325 kts 106°
2026-05-06 09:30 55.58286 37.52682 15730 ft 329 kts 106°
2026-05-06 09:31 55.57556 37.56631 16374 ft 332 kts 106°
2026-05-06 09:31 55.57093 37.60592 16978 ft 332 kts 86°
2026-05-06 09:31 55.57583 37.64554 17614 ft 328 kts 60°
2026-05-06 09:31 55.58715 37.68109 18263 ft 329 kts 55°
2026-05-06 09:32 55.59939 37.71621 18903 ft 332 kts 55°
2026-05-06 09:32 55.61137 37.75109 19529 ft 336 kts 56°
2026-05-06 09:32 55.62336 37.78685 20160 ft 339 kts 56°
2026-05-06 09:32 55.63526 37.82285 20787 ft 342 kts 57°
2026-05-06 09:33 55.64465 37.86226 21407 ft 351 kts 75°
2026-05-06 09:33 55.64585 37.90564 22034 ft 360 kts 95°
2026-05-06 09:33 55.64091 37.94961 22678 ft 364 kts 101°
2026-05-06 09:33 55.63495 37.99269 23299 ft 366 kts 101°
2026-05-06 09:34 55.62881 38.03690 23933 ft 367 kts 101°
2026-05-06 09:34 55.62289 38.08110 24564 ft 368 kts 100°
2026-05-06 09:34 55.61718 38.12499 25189 ft 368 kts 99°
2026-05-06 09:34 55.61150 38.16916 25816 ft 368 kts 99°
2026-05-06 09:35 55.60593 38.21306 26442 ft 367 kts 99°
2026-05-06 09:35 55.60036 38.25687 27068 ft 365 kts 99°
2026-05-06 09:35 55.59481 38.30043 27679 ft 363 kts 99°
2026-05-06 09:35 55.58926 38.34380 27960 ft 372 kts 99°
2026-05-06 09:36 55.58366 38.38787 28152 ft 381 kts 97°
2026-05-06 09:36 55.58129 38.43489 28327 ft 385 kts 82°
2026-05-06 09:36 55.58617 38.48107 28507 ft 387 kts 66°
2026-05-06 09:36 55.59716 38.52212 28692 ft 390 kts 56°
2026-05-06 09:37 55.61120 38.56371 28872 ft 399 kts 54°
2026-05-06 09:37 55.62557 38.60549 29043 ft 408 kts 54°
2026-05-06 09:37 55.64022 38.64878 29299 ft 414 kts 55°
2026-05-06 09:37 55.65446 38.69155 29651 ft 417 kts 56°
2026-05-06 09:38 55.66902 38.73562 30043 ft 419 kts 56°
2026-05-06 09:38 55.68383 38.78065 30422 ft 421 kts 56°
2026-05-06 09:38 55.69834 38.82485 30774 ft 423 kts 56°
2026-05-06 09:38 55.71352 38.86985 31118 ft 424 kts 54°
2026-05-06 09:39 55.72982 38.91311 31452 ft 424 kts 51°
2026-05-06 09:39 55.74759 38.95501 31840 ft 423 kts 47°
2026-05-06 09:39 55.76645 38.99453 32196 ft 422 kts 44°
2026-05-06 09:39 55.78645 39.03288 32489 ft 423 kts 43°
2026-05-06 09:40 55.80643 39.07097 32759 ft 426 kts 45°
2026-05-06 09:40 55.82570 39.11179 33035 ft 430 kts 48°
2026-05-06 09:40 55.86012 39.19933 33707 ft 432 kts 54°
2026-05-06 09:41 55.87500 39.24528 34050 ft 433 kts 57°
2026-05-06 09:41 55.88866 39.29256 34374 ft 433 kts 59°
2026-05-06 09:41 55.90217 39.34095 34691 ft 433 kts 59°
2026-05-06 09:41 55.91536 39.38859 34997 ft 432 kts 59°
2026-05-06 09:42 55.92859 39.43639 35265 ft 432 kts 59°
2026-05-06 09:42 55.94188 39.48442 35491 ft 433 kts 59°
2026-05-06 09:42 55.95533 39.53301 35704 ft 434 kts 59°
2026-05-06 09:42 55.96868 39.58139 35908 ft 435 kts 59°
2026-05-06 09:43 55.98199 39.62971 36109 ft 436 kts 59°
2026-05-06 09:43 55.99521 39.67867 36302 ft 438 kts 63°
2026-05-06 09:43 56.00673 39.72941 36467 ft 441 kts 65°
2026-05-06 09:43 56.01665 39.78156 36634 ft 444 kts 69°
2026-05-06 09:44 56.02446 39.83480 36786 ft 448 kts 73°
2026-05-06 09:44 56.03033 39.89024 36819 ft 454 kts 77°
2026-05-06 09:44 56.03618 40.00403 36824 ft 465 kts 82°
2026-05-06 09:45 56.04005 40.11965 36825 ft 471 kts 83°
2026-05-06 09:45 56.04392 40.23699 36824 ft 476 kts 82°
2026-05-06 09:46 56.04771 40.35463 36823 ft 476 kts 83°
2026-05-06 09:46 56.05145 40.47333 36822 ft 476 kts 82°
2026-05-06 09:47 56.05510 40.59055 36823 ft 476 kts 82°
2026-05-06 09:47 56.05862 40.70709 36822 ft 476 kts 83°
2026-05-06 09:48 56.06209 40.82591 36824 ft 476 kts 83°
2026-05-06 09:48 56.06541 40.94371 36825 ft 476 kts 83°
2026-05-06 09:49 56.06863 41.06176 36824 ft 475 kts 83°
2026-05-06 09:49 56.07176 41.18011 36822 ft 475 kts 83°
2026-05-06 09:50 56.07476 41.29810 36823 ft 475 kts 83°
2026-05-06 09:50 56.07764 41.41544 36823 ft 474 kts 83°
2026-05-06 09:51 56.08041 41.53324 36822 ft 475 kts 83°
2026-05-06 09:51 56.08300 41.64785 36823 ft 475 kts 83°
2026-05-06 09:52 56.08555 41.76592 36824 ft 475 kts 83°
2026-05-06 09:52 56.08796 41.88251 36823 ft 475 kts 83°
2026-05-06 09:53 56.09026 41.99923 36823 ft 475 kts 83°
2026-05-06 09:53 56.09247 42.11724 36823 ft 475 kts 84°
2026-05-06 09:54 56.09457 42.23560 36823 ft 475 kts 83°
2026-05-06 09:54 56.09657 42.35345 36822 ft 475 kts 83°
2026-05-06 09:55 56.09848 42.47226 36823 ft 475 kts 83°
2026-05-06 09:55 56.10023 42.59057 36824 ft 475 kts 83°
2026-05-06 09:56 56.10191 42.70938 36823 ft 475 kts 84°
2026-05-06 09:56 56.10345 42.82782 36823 ft 475 kts 84°
2026-05-06 09:57 56.10487 42.94626 36824 ft 475 kts 84°
2026-05-06 09:57 56.10617 43.06435 36824 ft 474 kts 84°
2026-05-06 09:58 56.10734 43.18161 36823 ft 468 kts 84°
2026-05-06 09:58 56.10838 43.29722 36823 ft 463 kts 84°
2026-05-06 09:59 56.10934 43.41382 36824 ft 463 kts 84°
2026-05-06 09:59 56.11021 43.53062 36824 ft 463 kts 84°
2026-05-06 10:00 56.11096 43.64649 36824 ft 468 kts 84°
2026-05-06 10:00 56.11161 43.76364 36823 ft 469 kts 85°
2026-05-06 10:01 56.11213 43.88183 36824 ft 469 kts 85°
2026-05-06 10:01 56.11255 44.00097 36822 ft 469 kts 85°
2026-05-06 10:02 56.11285 44.11805 36824 ft 469 kts 85°
2026-05-06 10:02 56.11303 44.23464 36823 ft 469 kts 85°
2026-05-06 10:03 56.11311 44.35212 36825 ft 469 kts 85°
2026-05-06 10:03 56.11308 44.46840 36824 ft 469 kts 85°
2026-05-06 10:04 56.11284 44.58573 36823 ft 471 kts 86°
2026-05-06 10:04 56.10794 44.70456 36822 ft 476 kts 93°